Weather History for KMIW - February, 2013

Change the Weather History Date:

Sunday, February 17, 2013

  Actual Average Record
Temperature  
Mean Temperature 28 °F 24 °F  
Max Temperature 39 °F 33 °F 64 °F (2011)
Min Temperature 17 °F 14 °F -8 °F (2006)
Degree Days  
Heating Degree Days 37 41  
Month to date heating degree days 664 739  
Since 1 July heating degree days 4537 4972  
Cooling Degree Days 0 0  
Month to date cooling degree days 0 0  
Year to date cooling degree days 0 0  
Moisture  
Dew Point 20 °F    
Average Humidity 72    
Maximum Humidity 84    
Minimum Humidity 59    
Precipitation  
Precipitation 0.00 in 0.03 in 0.50 in (2008)
Month to date precipitation 0.36 0.43  
Sea Level Pressure  
Sea Level Pressure 29.97 in    
Wind  
Wind Speed 16 mph (SE)    
Max Wind Speed 24 mph    
Max Gust Speed 32 mph    
Visibility 10 miles    
Events      
T = Trace of Precipitation, MM = Missing Value Source: NWS Daily Summary

Daily Weather History Graph

Daily Weather History Graph

Search for Another Location

Airport or City:

Trip Planner

Search our weather history database for the weather conditions in past years. The results will help you decide how hot, cold, wet, or windy it might be!

Date:

Astronomy

Feb. 17, 2013 Rise Set
Actual Time 7:04 AM CST 5:47 PM CST
Civil Twilight 6:36 AM CST 6:15 PM CST
Nautical Twilight 6:03 AM CST 6:48 PM CST
Astronomical Twilight 5:31 AM CST 7:20 PM CST
Moon 10:49 AM CST (2/17) 12:51 AM CST (2/17)
Length of Visible Light 11h 39m
Length of Day
10h 42m
Waxing Crescent, 49% of the Moon is Illuminated
Feb 17
Waxing Crescent
Feb 17
First Quarter
Feb 25
Full
Mar 4
Last Quarter
Mar 11
New

Hourly Weather History & Observations

Time (CST) Temp. Windchill Dew Point Humidity Pressure Visibility Wind Dir Wind Speed Gust Speed Precip Events Conditions
12:53 AM 18.0 °F 7.7 °F 14.0 °F 84% 30.14 in 10.0 mi ESE 8.1 mph - N/A   Clear
1:53 AM 18.0 °F 6.1 °F 14.0 °F 84% 30.14 in 10.0 mi SE 10.4 mph - N/A   Clear
2:53 AM 18.0 °F 5.4 °F 12.9 °F 81% 30.14 in 10.0 mi SE 11.5 mph - N/A   Clear
3:53 AM 18.0 °F 6.1 °F 12.9 °F 81% 30.13 in 10.0 mi SE 10.4 mph - N/A   Clear
4:53 AM 17.1 °F 5.0 °F 12.9 °F 84% 30.12 in 10.0 mi SE 10.4 mph - N/A   Clear
5:53 AM 17.1 °F 5.0 °F 12.9 °F 84% 30.12 in 10.0 mi SE 10.4 mph - N/A   Clear
8:53 AM 19.9 °F 6.7 °F 15.1 °F 81% 30.08 in 10.0 mi SE 13.8 mph - N/A   Partly Cloudy
9:53 AM 24.1 °F 11.5 °F 18.0 °F 77% 30.07 in 10.0 mi SSE 15.0 mph - N/A   Scattered Clouds
10:53 AM 28.9 °F 16.9 °F 21.9 °F 75% 30.04 in 10.0 mi SE 17.3 mph 21.9 mph N/A   Clear
11:53 AM 33.1 °F 21.9 °F 24.1 °F 70% 30.01 in 10.0 mi SSE 18.4 mph - N/A   Clear
12:53 PM 36.0 °F 25.0 °F 24.1 °F 62% 29.97 in 10.0 mi SSE 20.7 mph 28.8 mph N/A   Clear
1:53 PM 37.9 °F 27.6 °F 24.1 °F 57% 29.93 in 10.0 mi SSE 20.7 mph 26.5 mph N/A   Clear
2:53 PM 37.9 °F 27.6 °F 24.1 °F 57% 29.90 in 10.0 mi SE 20.7 mph 27.6 mph N/A   Clear
3:53 PM 37.9 °F 27.3 °F 24.1 °F 57% 29.87 in 10.0 mi SE 21.9 mph 28.8 mph N/A   Clear
4:53 PM 37.9 °F 28.5 °F 25.0 °F 60% 29.85 in 10.0 mi SE 17.3 mph 26.5 mph N/A   Clear
5:53 PM 36.0 °F 24.7 °F 25.0 °F 64% 29.83 in 10.0 mi SE 21.9 mph 26.5 mph N/A   Clear
7:53 PM 35.1 °F 23.8 °F 24.1 °F 64% 29.80 in 10.0 mi SE 20.7 mph 26.5 mph N/A   Clear
8:53 PM 34.0 °F 22.7 °F 24.1 °F 67% 29.77 in 10.0 mi SE 19.6 mph 29.9 mph N/A   Clear
9:53 PM 34.0 °F 23.0 °F 24.1 °F 67% 29.76 in 10.0 mi SSE 18.4 mph 27.6 mph N/A   Clear
11:53 PM 32.0 °F 20.5 °F 24.1 °F 73% 29.70 in 10.0 mi SSE 18.4 mph - N/A   Clear